Location: Penticton
(49.5000°N, 119.5830°W)
Time: 02:28:40
(UTC-08:00)

Daily predictions for brighter satellites

Satellite Brightness Start Highest point End
(mag) Time Altitude Azimuth Time Altitude Azimuth Time Altitude Azimuth
SL-16 R/B 4.3 03:22:03 22° ENE 03:22:03 22° ENE 03:24:33 10° NE
ADEOS II 4.5 03:31:30 10° NNE 03:32:50 17° NE 03:32:50 17° NE
Cosmos 2237 Rocket 4.2 03:52:11 20° NNE 03:52:11 20° NNE 03:53:53 10° NNE
Cosmos 2369 Rocket 3.4 04:10:40 34° NNE 04:11:35 37° NE 04:16:50 10° ESE
CENTAUR R/B 2.7 04:14:51 71° NE 04:14:51 71° NE 04:21:11 10° NE
Lacrosse 5 4.3 04:14:07 13° SSE 04:16:42 19° ESE 04:20:10 10° E
ATLAS 5 CENTAUR R/B 4.1 04:20:03 19° NNE 04:20:03 19° NNE 04:22:54 10° NE
Cosmos 2219 Rocket 4.1 04:26:03 19° N 04:26:03 19° N 04:27:48 10° NNE
COSMO-SKYMED 1 3.8 04:26:39 10° SE 04:30:31 40° ENE 04:30:31 40° ENE
Lacrosse 4 Rocket 3.7 04:33:41 17° NNE 04:33:56 17° NE 04:36:41 10° ENE
ATLAS 3B R/B 4.0 04:34:49 25° NNW 04:35:26 26° N 04:41:09 10° NE
Cosmos 2112 Rocket 4.3 04:37:22 58° NE 04:37:22 58° NE 04:41:34 10° NNE
Meteor 1-20 Rocket 4.3 04:33:32 10° S 04:39:02 70° E 04:44:31 10° NNE
Lacrosse 5 rocket 3.2 04:42:30 24° NNE 04:42:30 24° NNE 04:44:42 10° NE
Tiangong 2 4.2 04:44:45 13° SE 04:44:45 13° SE 04:45:19 10° ESE
Cosmos 2333 Rocket 3.8 04:46:13 22° N 04:46:13 22° N 04:48:41 10° NNE
Cosmos 1633 4.4 04:48:55 10° SSE 04:52:09 31° E 04:55:23 10° NNE
NOSS 3-2 (C) 4.5 04:52:28 33° NNW 04:52:28 33° NNW 04:58:49 10° NE
Nadezhda 3 Rocket 4.4 04:46:57 10° N 04:53:17 63° ENE 04:59:36 10° SSE
Cosmos 1943 Rocket 3.4 04:50:35 21° N 04:53:34 36° NE 04:58:37 10° ESE
SL-08 ROCKET BODY 4.2 04:57:02 10° SSW 05:02:58 77° W 05:08:53 10° N
SL-16 R/B 2.4 05:04:00 52° NW 05:04:00 52° NW 05:09:07 10° NNE
Cosmos 1602 4.5 05:03:07 10° S 05:06:58 54° E 05:10:51 10° NNE
Cosmos 2327 Rocket 4.4 05:00:52 10° SSW 05:07:13 77° W 05:13:32 10° N
Meteor 1-19 Rocket 4.3 05:05:53 11° N 05:11:30 83° ENE 05:17:18 10° SSE
CZ-4C R/B 4.0 05:10:06 21° NNW 05:12:28 25° N 05:18:11 10° ENE
Cosmos 2056 Rocket 3.5 05:14:21 54° WSW 05:14:21 54° WSW 05:19:13 10° S
SL-23 DEB 3.8 05:16:38 58° ESE 05:16:38 58° ESE 05:19:23 10° ESE
ADEOS II 3.3 05:11:13 10° N 05:13:47 26° NNW 05:13:47 26° NNW
Cosmos 2074 Rocket 3.9 05:10:20 10° SSW 05:16:33 64° WNW 05:22:48 10° N
Abrixas rocket 4.4 05:16:06 19° S 05:17:06 22° SSE 05:19:45 10° E
SKYMED 2 3.4 05:14:24 10° S 05:18:43 70° WSW 05:19:09 64° WNW
Cosmos 2263 4.3 05:16:25 27° NNW 05:19:37 75° ENE 05:25:14 10° SE
Meteor 1-25 Rocket 4.4 05:17:01 14° SW 05:21:52 51° WNW 05:27:32 10° N
Cosmos 2341 Rocket 4.5 05:16:14 10° S 05:22:24 62° E 05:28:34 10° NNE
Meteor 1-28 Rocket 3.4 05:18:53 10° SSE 05:22:40 72° ENE 05:24:18 33° N
Meteor 1-11 Rocket 4.0 05:18:41 10° S 05:24:29 73° E 05:30:11 10° NNE
Cosmos 1624 Rocket 4.4 05:27:43 40° WSW 05:27:43 40° WSW 05:32:36 10° S
Ariane Rocket 3.4 05:23:00 10° NNE 05:28:03 64° ESE 05:33:04 10° S
SJ-6F 4.3 05:26:18 10° N 05:30:21 62° WNW 05:34:22 10° SSW
Cosmos 1340 3.9 05:27:30 12° N 05:30:47 41° ENE 05:34:24 10° SE
Meteor 1-13 Rocket 4.3 05:25:51 15° NNW 05:30:52 62° W 05:36:42 10° S
Cosmos 2237 Rocket 3.6 05:34:02 20° NNW 05:34:02 20° NNW 05:37:22 10° N
Cosmos 2184 Rocket 4.1 05:27:55 10° SSW 05:33:53 50° WNW 05:39:57 10° N
DMSP B5D1-3 4.5 05:29:15 10° S 05:34:21 65° WSW 05:38:20 17° NNW
Okean 2 4.1 05:32:36 10° N 05:36:45 55° ENE 05:40:50 10° SSE
Meteor 1-23 Rocket 4.2 05:32:51 10° N 05:38:27 85° ENE 05:44:01 10° SSE
CSL-04 Rocket 4.1 05:34:42 10° NNE 05:40:17 67° ESE 05:45:45 10° S
CZ-2C R/B 4.4 05:36:39 10° NNE 05:41:18 32° E 05:45:50 10° SSE
Cosmos 1025 Rocket 2.9 05:37:37 14° N 05:41:22 85° W 05:45:44 10° S
USA 215 3.5 05:36:06 10° ENE 05:42:38 72° SE 05:49:09 10° SW
Radarsat Rocket 4.4 05:40:09 10° NNE 05:47:03 76° WNW 05:54:52 10° SSW
Meteor 2-4 Rocket 3.6 05:43:26 10° NNW 05:48:55 71° W 05:54:30 10° S
IDEFIX/ARIANE 42P 4.3 05:44:34 10° NNE 05:49:20 35° E 05:54:05 10° SSE
Cosmos 2154 Rocket 3.9 05:43:24 10° SSW 05:49:35 70° WNW 05:55:48 10° N
CZ-4 R/B 2.7 05:48:33 10° NNE 05:52:20 41° E 05:56:02 10° S
Cosmos 2369 Rocket 2.5 05:52:29 23° NW 05:55:46 47° WSW 06:01:12 10° S
Cosmos 44 Rocket 3.3 05:50:42 10° SW 05:55:53 84° NW 06:01:00 10° NE
Cosmos 1536 2.7 05:54:26 10° SSW 05:58:23 67° W 06:02:25 10° N
Lacrosse 5 2.0 05:53:53 10° SW 05:59:00 78° SE 06:04:07 10° ENE
Okean 1 Rocket 3.3 05:56:43 10° SSW 06:00:55 44° WNW 06:05:09 10° N
Cosmos 1900 4.4 05:58:04 24° NW 06:00:56 61° WSW 06:05:48 10° SSE
Cosmos 1603 3.9 05:55:57 10° SW 06:01:28 49° NW 06:06:58 10° NNE
Cosmos 192 4.4 05:57:56 10° SW 06:02:44 53° WNW 06:07:33 10° NNE
Meteor 1-5 Rocket 4.3 05:58:03 10° S 06:03:22 73° E 06:08:40 10° NNE
Cosmos 1452 Rocket 3.8 05:59:54 19° NW 06:03:30 48° WSW 06:08:32 10° S
Cosmos 1544 Rocket 4.2 05:59:42 10° S 06:03:59 58° E 06:08:19 10° NNE
SL-24 DEB 4.4 06:00:01 10° S 06:04:42 54° W 06:09:26 10° NNW
Meteor 2-8 Rocket 4.4 05:58:44 10° NNW 06:04:55 80° W 06:11:04 10° S
ATLAS 5 CENTAUR R/B 3.8 06:01:36 13° NNW 06:05:21 24° NNE 06:10:11 10° ENE
CENTAUR R/B 3.4 06:02:04 21° WNW 06:05:39 35° NNW 06:12:21 10° NE
COSMO-SKYMED 1 3.6 06:03:28 10° SSW 06:07:01 24° W 06:07:43 23° WNW
Cosmos 2219 Rocket 4.1 06:07:47 12° NNW 06:08:22 12° NNW 06:10:24 10° N
Lacrosse 4 Rocket 1.3 06:10:03 16° NNW 06:13:19 86° NE 06:17:25 10° SE
IRS-1A Rocket 4.3 06:12:52 10° NNE 06:18:36 89° W 06:24:24 10° SSW
Tiangong 2 3.3 06:16:48 11° SW 06:18:43 18° SSW 06:20:56 10° SSE
GRACE-2 4.1 06:16:30 11° NNW 06:19:03 47° W 06:21:45 10° SSW
Cosmos 1515 4.2 06:15:29 10° N 06:19:19 62° ENE 06:23:07 10° SSE
GRACE-1 4.1 06:16:58 11° NNW 06:19:28 45° W 06:22:09 10° SSW
SOZ 3.7 06:19:14 23° WSW 06:20:19 80° SSE 06:22:26 10° ENE
SL-8 Rocket 4.0 06:14:27 10° S 06:20:44 83° W 06:27:00 10° N
Lacrosse 5 rocket 2.6 06:18:13 17° NW 06:20:51 31° N 06:24:51 10° ENE
Cosmos 1892 Rocket 3.7 06:19:15 10° NNW 06:23:37 55° W 06:28:00 10° S
Cosmos 1943 3.2 06:19:43 10° SW 06:25:18 64° WNW 06:30:57 10° NNE
Cosmos 1633 3.8 06:24:22 10° WSW 06:27:14 21° WNW 06:30:06 10° NNW
ATLAS 3B R/B 3.8 06:22:04 10° NW 06:28:19 33° NNE 06:34:22 10° E
Cosmos 2333 Rocket 4.1 06:28:14 10° NW 06:29:46 11° NNW 06:31:27 10° N
Cosmos 2366 rocket 4.1 06:26:26 10° S 06:32:44 90° SSE 06:39:10 10° N
Cosmos 1959 Rocket 4.4 06:28:47 10° SSW 06:34:53 78° W 06:41:02 10° N
USA 129 4.2 06:35:06 10° WSW 06:35:19 11° WSW 06:35:19 11° WSW
Cosmos 1626 Rocket 3.7 06:32:51 10° N 06:37:19 79° ENE 06:41:44 10° SSE
Cosmos 1943 Rocket 2.5 06:32:12 10° NW 06:37:27 45° WSW 06:42:39 10° S
PAYLOAD A 4.1 06:33:14 10° N 06:38:32 65° WNW 06:43:54 10° SSW
Cosmos 2218 Rocket 4.0 06:33:26 10° SSW 06:39:50 74° W 06:46:15 10° N
Cosmos 839 Rocket 4.3 06:34:26 10° NW 06:40:59 53° WSW 06:46:54 10° SSE
Helios 1B rocket 2.7 06:37:31 10° S 06:41:33 49° W 06:45:37 10° NNW
Cosmos 1975 3.1 06:38:46 10° S 06:42:52 77° E 06:47:00 10° NNE
Cosmos 1269 Rocket 4.0 06:41:08 10° SSW 06:46:25 80° WNW 06:51:46 10° NNE
Cosmos 158 Rocket 4.4 06:42:57 10° SSW 06:48:13 72° ESE 06:53:38 10° NNE
SL-16 R/B 3.8 06:45:55 10° WNW 06:49:02 15° NNW 06:52:20 10° N
SMAP 3.0 06:46:10 10° N 06:50:49 70° WNW 06:55:26 10° SSW
Cosmos 1500 3.3 06:48:42 10° S 06:52:27 79° E 06:56:15 10° NNE
Cosmos 1461 4.4 06:48:50 10° SSW 06:52:53 42° ESE 06:56:48 10° NE
Cosmos 1455 Rocket 3.1 06:48:59 10° SSW 06:53:15 58° WNW 06:57:33 10° N
Abrixas rocket 2.8 06:50:20 10° WSW 06:53:40 60° SSE 06:56:59 10° E
MSX 4.1 06:48:07 10° NNE 06:53:54 78° ESE 06:59:38 10° S
Cosmos 44 3.6 06:49:10 10° WSW 06:54:22 54° NW 06:59:23 10° NNE
SJ-7 4.5 06:50:29 10° N 06:54:39 63° WNW 06:58:43 10° SSW
Cosmos 405 Rocket 3.0 06:51:44 10° N 06:55:34 70° ENE 06:59:18 10° SSE
Cosmos 2084 3.3 06:55:56 10° SW 06:59:46 77° SE 07:03:35 10° NE
Cosmos 1727 Rocket 4.2 06:53:51 10° NNW 06:59:50 53° W 07:05:49 10° SSW
Cosmos 1656 Rocket 3.8 06:56:21 10° NW 07:01:55 61° WSW 07:07:31 10° SSE
CZ-4C R/B 3.5 06:56:15 10° NW 07:02:40 46° NE 07:09:53 10° ESE
Cosmos 1980 Rocket 4.2 06:59:19 10° N 07:03:05 18° NE 07:06:51 10° ENE
Cosmos 1066 Rocket 4.1 06:58:23 10° NNW 07:03:45 72° W 07:09:11 10° S
USA 229 DEB 3.7 06:57:37 10° SW 07:04:32 77° NW 07:11:34 10° NE
MOS 1 4.3 06:58:58 10° N 07:04:35 66° WNW 07:10:10 10° SSW
USA 229 3.7 06:57:44 10° SW 07:04:37 77° NW 07:11:40 10° NE
SPOT 3 Rocket 3.6 06:59:48 10° N 07:04:53 62° WNW 07:09:57 10° SSW
